Hourly Data Report for October 23, 2013

All times are specified in Local Standard Time (LST). Add 1 hour to adjust for Daylight Saving Time where and when it is observed.

HALL BEACH A
NUNAVUT

68°46'33.000" N
81°14'33.000" W
9.10 m
2402354
71293
YUX

Download Data

Hourly Data (October 2013)
Hourly Data Report for October 23, 2013
Temp Definition
°C
Dew Point Temp Definition
°C
Rel Hum Definition
%
Wind Dir Definition
10's deg

Wind Spd Definition
km/h
Visibility Definition
km
Stn Press Definition
kPa
Hmdx Definition


Wind Chill Definition


Weather Definition


TIME
00:00 Legend Double Dagger -7.5 -8.4 93 34 18 16.1 101.65   -14 LegendNANA
01:00 Legend Double Dagger -10.6 -11.6 93 33 18 16.1 101.65   -18 LegendNANA
02:00 Legend Double Dagger -11.1 -12.2 92 33 21 16.1 101.66   -19 LegendNANA
03:00 Legend Double Dagger -12.1 -13.2 92 33 18 16.1 101.65   -20 LegendNANA
04:00 Legend Double Dagger -10.4 -11.5 92 32 18 16.1 101.64   -18 LegendNANA
05:00 Legend Double Dagger -9.0 -9.9 93 32 17 11.3 101.61   -16 LegendNANA
06:00 Legend Double Dagger -11.2 -12.4 91 32 15 16.1 101.60   -18 LegendNANA
07:00 Legend Double Dagger -12.2 -13.2 92 31 18 16.1 101.58   -20 LegendNANA
08:00 Legend Double Dagger -11.8 -13.0 91 31 15 16.1 101.58   -19 LegendNANA
09:00 Legend Double Dagger -13.3 -14.6 90 31 15 16.1 101.59   -21 LegendNANA
10:00 Legend Double Dagger -13.6 -14.9 90 30 17 16.1 101.57   -22 LegendNANA
11:00 Legend Double Dagger -10.7 -11.8 92 32 11 16.1 101.53   -16 LegendNANA
12:00 Legend Double Dagger -9.6 -10.5 93 29 8 16.1 101.52   -14 LegendNANA
13:00 Legend Double Dagger -8.4 -9.3 93 33 18 16.1 101.50   -15 LegendNANA
14:00 Legend Double Dagger -8.7 -9.6 93 31 22 16.1 101.50   -17 LegendNANA
15:00 Legend Double Dagger -9.5 -10.4 93 32 17 16.1 101.51   -17 LegendNANA
16:00 Legend Double Dagger -12.0 -13.3 90 29 15 16.1 101.49   -19 LegendNANA
17:00 Legend Double Dagger -14.2 -15.6 89 31 11 16.1 101.46   -21 LegendNANA
18:00 Legend Double Dagger -14.1 -15.5 89 30 15 16.1 101.46   -22 LegendNANA
19:00 Legend Double Dagger -14.4 -15.8 89 30 17 16.1 101.42   -23 LegendNANA
20:00 Legend Double Dagger -14.7 -16.1 89 31 17 16.1 101.38   -23 LegendNANA
21:00 Legend Double Dagger -15.6 -17.2 88 31 17 16.1 101.35   -24 LegendNANA
22:00 Legend Double Dagger -16.0 -17.5 88 31 15 16.1 101.33   -24 LegendNANA
23:00 Legend Double Dagger -15.6 -17.2 88 31 21 16.1 101.28   -25 LegendNANA

Notes on Data Quality.

Legend

  • E = Estimated
  • M = Missing
  • NA = Not Available
  • ‡ = Partner data that is not subject to review by the National Climate Archives
Date modified: